Weather History for Budapest Ferihegy, Hungary

Change the Weather History Date:

Friday, August 23, 2013

  Actual Average Record
Temperature  
Mean Temperature 70 °F -  
Max Temperature 82 °F 70 °F 95 °F (2011)
Min Temperature 57 °F 51 °F 44 °F (1999)
Cooling Degree Days 4    
Growing Degree Days 20 (Base 50)    
Moisture  
Dew Point 50 °F    
Average Humidity 50    
Maximum Humidity 77    
Minimum Humidity 32    
Precipitation  
Precipitation 0.00 in - - ()
Sea Level Pressure  
Sea Level Pressure 30.05 in    
Wind  
Wind Speed 6 mph ()    
Max Wind Speed 12 mph    
Max Gust Speed -    
Averages and records for this station are not official NWS values.
T = Trace of Precipitation, MM = Missing Value Source: Averaged Metar Reports

Daily Weather History Graph

Daily Weather History Graph

Search for Another Location

Airport:

Trip Planner

Search our weather history database for the weather conditions in past years. The results will help you decide how hot, cold, wet, or windy it might be!

Date:

Astronomy

Aug. 23, 2013 Rise Set
Actual Time 5:49 AM CEST 7:40 PM CEST
Civil Twilight 5:16 AM CEST 8:13 PM CEST
Nautical Twilight 4:36 AM CEST 8:53 PM CEST
Astronomical Twilight 3:52 AM CEST 9:37 PM CEST
Moon 8:31 PM CEST (8/23) 8:40 AM CEST (8/23)
Length of Visible Light 14h 56m
Length of Day
13h 50m
Waning Gibbous, 93% of the Moon is Illuminated
Aug 23
Waning Gibbous
Aug 28
Last Quarter
Sep 5
New
Sep 12
First Quarter
Sep 19
Full

Hourly Weather History & Observations

Time (CEST) Temp. Dew Point Humidity Pressure Visibility Wind Dir Wind Speed Gust Speed Precip Events Conditions
12:00 AM 66.2 °F 50.0 °F 56% 30.09 in - East 11.5 mph - N/A   Clear
12:30 AM 66.2 °F 50.0 °F 56% 30.09 in - East 10.4 mph - N/A   Clear
1:00 AM 64.4 °F 50.0 °F 59% 30.09 in - East 10.4 mph - N/A   Clear
1:30 AM 62.6 °F 50.0 °F 63% 30.09 in - ESE 6.9 mph - N/A   Clear
2:00 AM 62.6 °F 50.0 °F 63% 30.09 in - East 6.9 mph - N/A   Clear
2:30 AM 62.6 °F 50.0 °F 63% 30.09 in - Variable 2.3 mph - N/A   Clear
3:00 AM 62.6 °F 48.2 °F 59% 30.09 in - Variable 3.5 mph - N/A   Clear
3:30 AM 62.6 °F 48.2 °F 59% 30.09 in - Variable 2.3 mph - N/A   Clear
4:00 AM 60.8 °F 48.2 °F 63% 30.09 in - Variable 1.2 mph - N/A   Clear
4:30 AM 60.8 °F 48.2 °F 63% 30.06 in - NNW 5.8 mph - N/A   Clear
5:00 AM 57.2 °F 48.2 °F 72% 30.06 in - NNW 4.6 mph - N/A   Clear
5:30 AM 57.2 °F 50.0 °F 77% 30.06 in - NNW 4.6 mph - N/A   Clear
6:00 AM 59.0 °F 50.0 °F 72% 30.06 in - NW 6.9 mph - N/A   Clear
6:30 AM 59.0 °F 50.0 °F 72% 30.06 in - NNW 5.8 mph - N/A   Clear
7:00 AM 59.0 °F 50.0 °F 72% 30.09 in - NNW 5.8 mph - N/A   Clear
7:30 AM 60.8 °F 50.0 °F 68% 30.09 in - NNW 4.6 mph - N/A   Clear
8:00 AM 62.6 °F 50.0 °F 63% 30.09 in - NNW 5.8 mph - N/A   Clear
8:30 AM 66.2 °F 51.8 °F 60% 30.09 in - NNW 5.8 mph - N/A   Clear
9:00 AM 68.0 °F 50.0 °F 52% 30.09 in - ENE 5.8 mph - N/A   Clear
9:30 AM 69.8 °F 50.0 °F 49% 30.09 in - ENE 6.9 mph - N/A   Clear
10:00 AM 71.6 °F 48.2 °F 43% 30.09 in - ENE 6.9 mph - N/A   Clear
10:30 AM 73.4 °F 48.2 °F 41% 30.06 in - East 6.9 mph - N/A   Clear
11:00 AM 73.4 °F 48.2 °F 41% 30.06 in - East 6.9 mph - N/A   Clear
11:30 AM 75.2 °F 48.2 °F 38% 30.06 in - SSE 5.8 mph - N/A   Clear
12:00 PM 75.2 °F 48.2 °F 38% 30.06 in - NE 4.6 mph - N/A   Clear
12:30 PM 77.0 °F 48.2 °F 36% 30.06 in - ESE 6.9 mph - N/A   Clear
1:00 PM 77.0 °F 48.2 °F 36% 30.04 in - SW 5.8 mph - N/A   Clear
1:30 PM 78.8 °F 48.2 °F 34% 30.04 in - West 5.8 mph - N/A   Clear
2:00 PM 78.8 °F 48.2 °F 34% 30.04 in - West 5.8 mph - N/A   Clear
2:30 PM 80.6 °F 48.2 °F 32% 30.04 in - Variable 3.5 mph - N/A   Clear
3:00 PM 78.8 °F 48.2 °F 34% 30.01 in - Variable 3.5 mph - N/A   Clear
3:30 PM 80.6 °F 50.0 °F 34% 30.01 in - NE 4.6 mph - N/A   Clear
4:00 PM 80.6 °F 50.0 °F 34% 30.01 in - NNE 4.6 mph - N/A   Clear
4:30 PM 80.6 °F 50.0 °F 34% 30.01 in - ESE 4.6 mph - N/A   Clear
5:00 PM 82.4 °F 50.0 °F 32% 29.98 in - WNW 4.6 mph - N/A   Clear
5:30 PM 80.6 °F 50.0 °F 34% 29.98 in - NE 8.1 mph - N/A   Clear
6:00 PM 80.6 °F 50.0 °F 34% 29.98 in - ENE 4.6 mph - N/A   Clear
6:30 PM 78.8 °F 50.0 °F 36% 29.98 in - NNE 5.8 mph - N/A   Clear
7:00 PM 77.0 °F 50.0 °F 39% 29.98 in - Variable 3.5 mph - N/A   Clear
7:30 PM 77.0 °F 51.8 °F 41% 29.98 in - East 5.8 mph - N/A   Clear
8:00 PM 73.4 °F 53.6 °F 50% 29.98 in - ENE 4.6 mph - N/A   Clear
8:30 PM 73.4 °F 51.8 °F 47% 30.01 in - Variable 3.5 mph - N/A   Clear
9:00 PM 71.6 °F 53.6 °F 53% 30.01 in - Variable 3.5 mph - N/A   Clear
9:30 PM 69.8 °F 53.6 °F 56% 30.01 in - Variable 3.5 mph - N/A   Clear
10:00 PM 71.6 °F 51.8 °F 50% 30.01 in - East 6.9 mph - N/A   Clear
10:30 PM 69.8 °F 51.8 °F 53% 30.01 in - East 8.1 mph - N/A   Clear
11:00 PM 69.8 °F 50.0 °F 49% 30.04 in - East 8.1 mph - N/A   Clear
11:30 PM 69.8 °F 48.2 °F 46% 30.04 in - East 10.4 mph - N/A   Clear